TimeMST,TemperatureF,Dew PointF,Humidity,Sea Level PressureIn,VisibilityMPH,Wind Direction,Wind SpeedMPH,Gust SpeedMPH,PrecipitationIn,Events,Conditions,WindDirDegrees,DateUTC
12:55 AM,42.1,34.0,73,29.74,10.0,SSE,6.9,-,0.00,,Overcast,160,2012-11-18 07:55:00
1:55 AM,41.0,33.1,73,29.73,10.0,SSE,4.6,-,N/A,,Mostly Cloudy,160,2012-11-18 08:55:00
2:55 AM,42.1,33.1,70,29.70,10.0,South,8.1,-,0.00,,Mostly Cloudy,180,2012-11-18 09:55:00
3:55 AM,41.0,33.1,73,29.71,10.0,South,9.2,-,N/A,,Overcast,180,2012-11-18 10:55:00
4:15 AM,41.0,33.8,76,29.78,4.0,SSW,5.8,-,0.05,Rain,Rain,210,2012-11-18 11:15:00
4:25 AM,39.2,35.6,87,29.79,9.0,WSW,6.9,-,0.07,Rain,Light Rain,250,2012-11-18 11:25:00
4:35 AM,39.2,33.8,81,29.79,9.0,SSE,6.9,-,0.07,Rain,Light Rain,160,2012-11-18 11:35:00
4:47 AM,39.2,33.8,81,29.79,9.0,SSE,12.7,-,0.08,Rain,Light Rain,160,2012-11-18 11:47:00
5:55 AM,39.0,34.0,82,29.79,10.0,South,9.2,-,0.00,,Overcast,180,2012-11-18 12:55:00
6:55 AM,37.0,32.0,82,29.82,10.0,Calm,Calm,-,N/A,,Mostly Cloudy,0,2012-11-18 13:55:00
7:55 AM,35.1,30.9,85,29.84,10.0,SW,4.6,-,N/A,,Partly Cloudy,220,2012-11-18 14:55:00
8:55 AM,36.0,28.0,73,29.86,10.0,South,3.5,-,N/A,,Partly Cloudy,190,2012-11-18 15:55:00
9:55 AM,37.9,28.0,68,29.89,10.0,SE,3.5,-,N/A,,Clear,140,2012-11-18 16:55:00
10:55 AM,44.1,28.0,53,29.89,10.0,SSE,6.9,-,N/A,,Clear,160,2012-11-18 17:55:00
11:55 AM,46.0,12.9,26,29.90,10.0,SSW,10.4,-,N/A,,Clear,210,2012-11-18 18:55:00
12:55 PM,46.0,8.1,21,29.88,10.0,WSW,10.4,-,N/A,,Clear,240,2012-11-18 19:55:00
1:55 PM,46.9,3.9,17,29.88,10.0,SSW,9.2,-,N/A,,Clear,200,2012-11-18 20:55:00
2:55 PM,46.9,8.1,21,29.89,10.0,South,10.4,-,N/A,,Partly Cloudy,190,2012-11-18 21:55:00
3:55 PM,44.1,7.0,22,29.91,10.0,SSW,6.9,-,N/A,,Clear,200,2012-11-18 22:55:00
4:55 PM,39.9,8.1,27,29.95,10.0,West,9.2,-,N/A,,Scattered Clouds,260,2012-11-18 23:55:00
5:55 PM,37.0,10.0,33,29.99,10.0,WSW,6.9,-,N/A,,Clear,250,2012-11-19 00:55:00
6:55 PM,34.0,16.0,48,30.02,10.0,East,3.5,-,N/A,,Clear,90,2012-11-19 01:55:00
7:55 PM,32.0,16.0,52,30.05,10.0,Calm,Calm,-,N/A,,Clear,0,2012-11-19 02:55:00
8:55 PM,28.9,16.0,58,30.07,10.0,Calm,Calm,-,N/A,,Clear,0,2012-11-19 03:55:00
9:55 PM,28.0,18.0,66,30.09,10.0,Calm,Calm,-,N/A,,Clear,0,2012-11-19 04:55:00
10:55 PM,27.0,17.1,66,30.08,10.0,Calm,Calm,-,N/A,,Clear,0,2012-11-19 05:55:00
11:55 PM,27.0,18.0,69,30.08,10.0,South,3.5,-,N/A,,Clear,170,2012-11-19 06:55:00